Weather History for Flag Island, MN

Change the Weather History Date:

Friday, May 10, 2013

  Actual Average Record
Temperature  
Mean Temperature 40 °F -  
Max Temperature 51 °F 51 °F 66 °F (1998)
Min Temperature 30 °F 36 °F 28 °F (2002)
Degree Days  
Heating Degree Days 24    
Moisture  
Dew Point 30 °F    
Average Humidity 71    
Maximum Humidity 87    
Minimum Humidity 39    
Precipitation  
Precipitation 0.09 in - - ()
Sea Level Pressure  
Sea Level Pressure 30.03 in    
Wind  
Wind Speed 10 mph (SSE)    
Max Wind Speed 32 mph    
Max Gust Speed 37 mph    
Visibility 10 miles    
Events Rain    
Averages and records for this station are not official NWS values.
T = Trace of Precipitation, MM = Missing Value Source: NWS Daily Summary

Daily Weather History Graph

Daily Weather History Graph

Search for Another Location

Airport:

Trip Planner

Search our weather history database for the weather conditions in past years. The results will help you decide how hot, cold, wet, or windy it might be!

Date:

Astronomy

May. 10, 2013 Rise Set
Actual Time 5:42 AM CDT 8:50 PM CDT
Civil Twilight 5:05 AM CDT 9:27 PM CDT
Nautical Twilight 4:16 AM CDT 10:17 PM CDT
Astronomical Twilight 3:14 AM CDT 11:19 PM CDT
Moon 6:07 AM CDT (5/10) 9:42 PM CDT (5/10)
Length of Visible Light 16h 22m
Length of Day
15h 07m
New Moon, 0% of the Moon is Illuminated
May 10
New Moon
May 17
First Quarter
May 24
Full
May 31
Last Quarter
Jun 8
New

Hourly Weather History & Observations

Time (CDT) Temp. Windchill Dew Point Humidity Pressure Visibility Wind Dir Wind Speed Gust Speed Precip Events Conditions
12:33 AM 42.8 °F 40.1 °F 19.4 °F 39% 30.22 in 10.0 mi East 4.6 mph - N/A   Clear
1:13 AM 42.8 °F 39.3 °F 21.2 °F 42% 30.22 in 10.0 mi East 5.8 mph - N/A   Clear
1:33 AM 42.8 °F 40.1 °F 19.4 °F 39% 30.21 in 10.0 mi ESE 4.6 mph - N/A   Clear
1:54 AM 41.0 °F 38.0 °F 21.2 °F 45% 30.20 in 10.0 mi SE 4.6 mph - N/A   Clear
2:13 AM 39.2 °F 35.9 °F 23.0 °F 52% 30.19 in 10.0 mi SE 4.6 mph - N/A   Clear
2:33 AM 39.2 °F 35.9 °F 23.0 °F 52% 30.19 in 10.0 mi ESE 4.6 mph - N/A   Clear
2:54 AM 39.2 °F 35.9 °F 23.0 °F 52% 30.18 in 10.0 mi ESE 4.6 mph - N/A   Clear
3:13 AM 39.2 °F 35.0 °F 21.2 °F 49% 30.18 in 10.0 mi ESE 5.8 mph - N/A   Clear
3:54 AM 39.2 °F 35.9 °F 23.0 °F 52% 30.16 in 10.0 mi SE 4.6 mph - N/A   Clear
4:13 AM 39.2 °F 34.2 °F 23.0 °F 52% 30.16 in 10.0 mi SE 6.9 mph - N/A   Clear
4:53 AM 37.4 °F 31.4 °F 23.0 °F 56% 30.14 in 10.0 mi SE 8.1 mph - N/A   Clear
5:13 AM 35.6 °F 29.9 °F 24.8 °F 65% 30.14 in 10.0 mi SSE 6.9 mph - N/A   Clear
5:34 AM 30.2 °F 23.4 °F 26.6 °F 86% 30.14 in 10.0 mi SSE 6.9 mph - N/A   Clear
5:53 AM 32.0 °F 26.4 °F 26.6 °F 80% 30.14 in 10.0 mi SSE 5.8 mph - N/A   Clear
6:14 AM 33.8 °F 25.8 °F 24.8 °F 70% 30.14 in 10.0 mi SSE 10.4 mph - N/A   Clear
6:33 AM 33.8 °F 24.3 °F 26.6 °F 75% 30.13 in 10.0 mi SSE 13.8 mph - N/A   Clear
6:54 AM 33.8 °F 24.8 °F 26.6 °F 75% 30.12 in 10.0 mi SSE 12.7 mph - N/A   Clear
7:13 AM 33.8 °F 24.8 °F 26.6 °F 75% 30.11 in 10.0 mi SSE 12.7 mph - N/A   Clear
7:34 AM 33.8 °F 25.3 °F 26.6 °F 75% 30.11 in 10.0 mi SSE 11.5 mph - N/A   Clear
7:53 AM 33.8 °F 25.3 °F 28.4 °F 81% 30.10 in 10.0 mi SSE 11.5 mph - N/A   Clear
8:13 AM 33.8 °F 25.3 °F 28.4 °F 81% 30.10 in 10.0 mi SSE 11.5 mph - N/A   Clear
8:34 AM 35.6 °F 27.5 °F 28.4 °F 75% 30.08 in 10.0 mi SSE 11.5 mph - N/A   Clear
8:53 AM 35.6 °F 26.6 °F 28.4 °F 75% 30.07 in 10.0 mi SSE 13.8 mph - N/A   Clear
9:13 AM 35.6 °F 26.6 °F 28.4 °F 75% 30.06 in 10.0 mi SSE 13.8 mph - N/A   Clear
9:34 AM 35.6 °F 26.2 °F 28.4 °F 75% 30.05 in 10.0 mi SSE 15.0 mph - N/A   Clear
9:53 AM 37.4 °F 28.5 °F 28.4 °F 70% 30.04 in 10.0 mi SSE 15.0 mph - N/A   Clear
10:13 AM 37.4 °F 29.3 °F 28.4 °F 70% 30.03 in 10.0 mi SSE 12.7 mph - N/A   Clear
10:34 AM 35.6 °F 27.1 °F 30.2 °F 81% 30.02 in 10.0 mi SSE 12.7 mph - N/A   Clear
10:53 AM 35.6 °F 28.6 °F 30.2 °F 81% 30.01 in 10.0 mi South 9.2 mph - N/A   Clear
11:13 AM 35.6 °F 27.5 °F 30.2 °F 81% 29.99 in 10.0 mi SSE 11.5 mph - N/A   Clear
11:34 AM 37.4 °F 28.9 °F 30.2 °F 75% 29.98 in 10.0 mi SSE 13.8 mph - N/A   Clear
11:53 AM 37.4 °F 31.4 °F 30.2 °F 75% 29.98 in 10.0 mi South 8.1 mph - N/A   Clear
12:13 PM 35.6 °F 28.6 °F 30.2 °F 81% 29.97 in 10.0 mi SSE 9.2 mph - N/A   Clear
12:34 PM 37.4 °F 30.8 °F 30.2 °F 75% 29.95 in 10.0 mi SSE 9.2 mph - N/A   Scattered Clouds
12:53 PM 37.4 °F 30.8 °F 32.0 °F 81% 29.95 in 10.0 mi SSE 9.2 mph - N/A   Scattered Clouds
1:13 PM 37.4 °F 32.1 °F 32.0 °F 81% 29.95 in 10.0 mi SSE 6.9 mph - N/A   Mostly Cloudy
1:33 PM 37.4 °F 30.8 °F 33.8 °F 87% 29.92 in 10.0 mi SSE 9.2 mph - N/A   Scattered Clouds
1:53 PM 39.2 °F 33.6 °F 33.8 °F 81% 29.92 in 10.0 mi South 8.1 mph - N/A   Scattered Clouds
2:14 PM 39.2 °F 33.6 °F 33.8 °F 81% 29.91 in 10.0 mi South 8.1 mph - N/A   Scattered Clouds
2:33 PM 51.8 °F - 37.4 °F 58% 29.89 in 10.0 mi SW 17.3 mph 21.9 mph N/A   Clear
2:53 PM 48.2 °F - 37.4 °F 66% 29.89 in 10.0 mi WSW 8.1 mph - N/A Rain Light Rain
3:14 PM 50.0 °F - 41.0 °F 71% 29.89 in 5.0 mi WSW 4.6 mph 11.5 mph 0.02 in Rain Rain
3:33 PM 44.6 °F 39.7 °F 39.2 °F 81% 29.91 in 10.0 mi North 9.2 mph - 0.08 in Rain Light Rain
3:53 PM 44.6 °F 38.1 °F 39.2 °F 81% 29.92 in 10.0 mi NNW 13.8 mph - 0.08 in Rain Light Rain
4:14 PM 44.6 °F 37.4 °F 37.4 °F 76% 29.93 in 10.0 mi NW 16.1 mph - N/A   Overcast
4:33 PM 42.8 °F 36.2 °F 37.4 °F 81% 29.93 in 10.0 mi NW 12.7 mph - N/A Rain Light Rain
4:53 PM 42.8 °F 35.4 °F 39.2 °F 87% 29.92 in 7.0 mi NW 15.0 mph - 0.01 in Rain Light Rain
5:14 PM 42.8 °F 36.2 °F 39.2 °F 87% 29.92 in 10.0 mi NNW 12.7 mph - N/A   Overcast
5:33 PM 44.6 °F 36.6 °F 39.2 °F 81% 29.92 in 10.0 mi NNW 19.6 mph - N/A   Mostly Cloudy
5:53 PM 44.6 °F 35.9 °F 37.4 °F 76% 29.93 in 10.0 mi NNW 23.0 mph 31.1 mph N/A   Scattered Clouds
6:14 PM 44.6 °F 34.9 °F 35.6 °F 71% 29.94 in 10.0 mi NNW 28.8 mph 36.8 mph N/A   Scattered Clouds
6:33 PM 42.8 °F 32.7 °F 33.8 °F 70% 29.96 in 10.0 mi NNW 27.6 mph - N/A   Clear
6:54 PM 42.8 °F 31.9 °F 30.2 °F 61% 29.98 in 10.0 mi NNW 32.2 mph - N/A   Clear
7:13 PM 41.0 °F 30.5 °F 30.2 °F 65% 29.99 in 10.0 mi NNW 26.5 mph 32.2 mph N/A   Clear
7:34 PM 39.2 °F 27.2 °F 30.2 °F 70% 30.00 in 10.0 mi NW 31.1 mph 35.7 mph N/A   Scattered Clouds
7:53 PM 39.2 °F 28.0 °F 30.2 °F 70% 30.00 in 10.0 mi NNW 26.5 mph 31.1 mph N/A   Scattered Clouds
8:14 PM 39.2 °F 29.0 °F 30.2 °F 70% 30.01 in 10.0 mi NNW 21.9 mph 29.9 mph N/A   Scattered Clouds
8:33 PM 39.2 °F 29.8 °F 30.2 °F 70% 30.01 in 10.0 mi NNW 18.4 mph - N/A   Clear
8:53 PM 39.2 °F 29.3 °F 30.2 °F 70% 30.01 in 10.0 mi NNW 20.7 mph 27.6 mph N/A   Clear
9:13 PM 39.2 °F 28.3 °F 28.4 °F 65% 30.02 in 10.0 mi NNW 25.3 mph 32.2 mph N/A   Clear
9:33 PM 37.4 °F 26.9 °F 28.4 °F 70% 30.02 in 10.0 mi NNW 20.7 mph - N/A   Clear
9:53 PM 37.4 °F 28.9 °F 30.2 °F 75% 30.02 in 10.0 mi NNW 13.8 mph - N/A   Clear
10:13 PM 37.4 °F 28.5 °F 28.4 °F 70% 30.03 in 10.0 mi NNW 15.0 mph - N/A   Clear
10:33 PM 37.4 °F 28.9 °F 28.4 °F 70% 30.03 in 10.0 mi NW 13.8 mph - N/A   Clear
10:54 PM 37.4 °F 28.2 °F 28.4 °F 70% 30.03 in 10.0 mi NW 16.1 mph - N/A   Clear
11:13 PM 35.6 °F 26.2 °F 28.4 °F 75% 30.03 in 10.0 mi NW 15.0 mph - N/A   Clear
11:33 PM 35.6 °F 25.9 °F 28.4 °F 75% 30.04 in 10.0 mi NW 16.1 mph - N/A   Clear
11:54 PM 35.6 °F 25.5 °F 28.4 °F 75% 30.04 in 10.0 mi NW 17.3 mph - N/A   Clear